PITTSFIELD MILLS DAM SUNCOOK RIVER PITTSFIELD, NH: From 11/05/2018 11:00 to 11/19/2018 22:00

Date PRECIPITATION INCREMENT [IN] WATER TEMPERATURE [F] AIR TEMPERATURE [F] POOL ELEVATION [FT] RESERVOIR RELEASE [CFS]
11/19/2018 15:00 -- -- -- -- 492.0
11/19/2018 14:00 0.00 36.7 33.0 475.31 493.5
11/19/2018 13:00 0.00 36.7 32.0 475.31 495.0
11/19/2018 12:00 0.00 36.7 31.0 475.31 496.0
11/19/2018 11:00 0.00 36.7 31.0 475.31 496.8
11/19/2018 10:00 0.00 36.7 30.0 475.31 498.3
11/19/2018 09:00 0.00 36.7 30.0 475.31 499.5
11/19/2018 08:00 0.00 36.9 30.0 475.31 500.0
11/19/2018 07:00 0.00 36.9 30.0 475.32 501.5
11/19/2018 06:00 0.00 36.9 30.0 475.32 503.3
11/19/2018 05:00 0.00 36.9 30.0 475.32 503.0
11/19/2018 04:00 0.00 36.9 30.0 475.32 503.8
11/19/2018 03:00 0.00 36.9 30.0 475.32 506.0
11/19/2018 02:00 0.00 37.0 30.0 475.33 507.5
11/19/2018 01:00 0.00 37.0 30.0 475.33 509.0
11/19/2018 00:00 0.00 37.0 30.0 475.33 509.5
11/18/2018 23:00 0.00 37.0 30.0 475.33 510.8
11/18/2018 22:00 0.00 37.0 31.0 475.33 513.0
11/18/2018 21:00 0.00 37.0 31.0 475.33 514.5
11/18/2018 20:00 0.00 37.0 32.0 475.34 517.0
11/18/2018 19:00 0.00 37.0 31.0 475.34 517.3
11/18/2018 18:00 0.00 37.0 32.0 475.34 520.0
11/18/2018 17:00 0.00 37.0 33.0 475.34 521.5
11/18/2018 16:00 0.00 37.0 33.0 475.34 524.0
11/18/2018 15:00 0.00 36.9 32.0 475.35 526.0
11/18/2018 14:00 0.00 36.9 32.0 475.35 526.0
11/18/2018 13:00 0.00 36.9 32.0 475.35 528.5
11/18/2018 12:00 0.00 36.9 31.0 475.35 531.0
11/18/2018 11:00 0.00 36.9 29.0 475.36 533.3
11/18/2018 10:00 0.00 36.9 28.0 475.36 536.0
11/18/2018 09:00 0.00 37.0 28.0 475.36 536.0
11/18/2018 08:00 0.00 37.0 28.0 475.37 538.5
11/18/2018 07:00 0.00 37.2 29.0 475.36 539.3
11/18/2018 06:00 0.00 37.2 31.0 475.37 539.8
11/18/2018 05:00 0.00 37.4 32.0 475.37 541.8
11/18/2018 04:00 0.00 37.4 34.0 475.38 546.3
11/18/2018 03:00 0.00 37.4 35.0 475.38 547.5
11/18/2018 02:00 0.00 37.4 35.0 475.38 549.8
11/18/2018 01:00 0.00 37.4 30.0 475.38 552.5
11/18/2018 00:00 0.00 37.4 31.0 475.39 556.3
11/17/2018 23:00 0.00 37.4 37.0 475.39 556.8
11/17/2018 22:00 0.01 37.4 37.0 475.39 561.3
11/17/2018 21:00 0.02 37.2 36.0 475.40 564.3
11/17/2018 20:00 0.02 37.0 37.0 475.40 566.8
11/17/2018 19:00 0.04 36.9 37.0 475.41 570.3
11/17/2018 18:00 0.06 36.7 41.0 475.41 577.8
11/17/2018 17:00 0.08 36.7 42.0 475.42 579.0
11/17/2018 16:00 0.12 36.5 43.0 475.43 584.3
11/17/2018 15:00 0.03 36.3 43.0 475.42 579.8
11/17/2018 14:00 0.11 36.1 43.0 475.41 573.5
11/17/2018 13:00 0.13 36.0 43.0 475.42 577.0
11/17/2018 12:00 0.09 35.8 43.0 475.42 579.5
11/17/2018 11:00 0.01 35.6 42.0 475.42 583.5
11/17/2018 10:00 0.00 35.4 35.0 475.43 586.8
11/17/2018 09:00 0.00 35.4 32.0 475.43 589.3
11/17/2018 08:00 0.00 35.4 31.0 475.44 594.3
11/17/2018 07:00 0.00 35.4 29.0 475.44 596.0
11/17/2018 06:00 0.00 35.4 25.0 475.45 599.8
11/17/2018 05:00 0.00 35.4 27.0 475.45 604.8
11/17/2018 04:00 0.00 35.4 31.0 475.46 609.8
11/17/2018 03:00 0.00 35.4 26.0 475.46 611.8
11/17/2018 02:00 0.00 35.6 25.0 475.47 615.5
11/17/2018 01:00 0.00 35.6 24.0 475.47 620.3
11/17/2018 00:00 0.00 35.6 25.0 475.48 622.8
11/16/2018 23:00 0.00 35.6 26.0 475.48 622.8
11/16/2018 22:00 0.00 35.4 28.0 475.48 629.3
11/16/2018 21:00 0.00 35.4 30.0 475.49 635.0
11/16/2018 20:00 0.00 35.4 31.0 475.50 638.0
11/16/2018 19:00 0.00 35.4 32.0 475.50 642.0
11/16/2018 18:00 0.00 35.4 32.0 475.51 644.0
11/16/2018 17:00 0.00 35.4 33.0 475.51 647.3
11/16/2018 16:00 0.00 35.2 34.0 475.51 648.8
11/16/2018 15:00 0.00 35.2 33.0 475.51 650.8
11/16/2018 14:00 0.00 35.1 31.0 475.52 652.0
11/16/2018 13:00 0.00 35.1 29.0 475.52 655.0
11/16/2018 12:00 0.00 34.9 28.0 475.52 658.3
11/16/2018 11:00 0.00 34.9 27.0 475.52 664.3
11/16/2018 10:00 0.00 35.1 26.0 475.54 666.5
11/16/2018 09:00 0.00 35.1 27.0 475.54 674.3
11/16/2018 08:00 0.00 35.1 27.0 475.54 673.0
11/16/2018 07:00 0.00 35.1 27.0 475.54 677.0
11/16/2018 06:00 0.00 35.2 26.0 475.55 683.8
11/16/2018 05:00 0.00 35.4 26.0 475.56 693.0
11/16/2018 04:00 0.00 35.6 25.0 475.56 697.8
11/16/2018 03:00 0.00 35.8 25.0 475.57 701.0
11/16/2018 02:00 0.00 36.1 25.0 475.57 703.3
11/16/2018 01:00 0.00 36.1 25.0 475.59 707.5
11/16/2018 00:00 0.00 36.3 24.0 475.59 712.3
11/15/2018 23:00 0.00 36.3 26.0 475.59 717.8
11/15/2018 22:00 0.00 36.3 26.0 475.60 726.8
11/15/2018 21:00 0.00 36.3 26.0 475.61 734.8
11/15/2018 20:00 0.00 36.3 27.0 475.62 743.0
11/15/2018 19:00 0.00 36.1 27.0 475.63 750.0
11/15/2018 18:00 0.00 36.1 27.0 475.64 759.5
11/15/2018 17:00 0.00 36.1 28.0 475.65 768.3
11/15/2018 16:00 0.00 36.1 29.0 475.66 777.0
11/15/2018 15:00 0.00 36.0 29.0 475.67 786.0
11/15/2018 14:00 0.00 36.0 28.0 475.68 793.8
11/15/2018 13:00 0.00 35.8 26.0 475.69 802.3
11/15/2018 12:00 0.00 35.8 23.0 475.70 813.3
11/15/2018 11:00 0.00 35.8 22.0 475.71 820.5
11/15/2018 10:00 0.00 35.8 20.0 475.73 831.8
11/15/2018 09:00 0.00 36.0 17.0 475.74 840.0
11/15/2018 08:00 0.00 36.0 16.0 475.75 849.5
11/15/2018 07:00 0.00 36.1 16.0 475.75 860.0
11/15/2018 06:00 0.00 36.3 15.0 475.77 869.0
11/15/2018 05:00 0.00 36.5 16.0 475.78 879.3
11/15/2018 04:00 0.00 36.9 16.0 475.79 888.3
11/15/2018 03:00 0.00 37.0 16.0 475.80 902.0
11/15/2018 02:00 0.00 37.2 16.0 475.81 909.8
11/15/2018 01:00 0.00 37.4 17.0 475.82 918.0
11/15/2018 00:00 0.00 37.6 17.0 475.83 929.3
11/14/2018 23:00 0.00 37.8 18.0 475.85 939.8
11/14/2018 22:00 0.00 37.9 18.0 475.85 945.0
11/14/2018 21:00 0.00 38.1 19.0 475.86 954.0
11/14/2018 20:00 0.00 38.3 20.0 475.88 958.5
11/14/2018 19:00 0.00 38.5 21.0 475.89 974.3
11/14/2018 18:00 0.00 38.7 22.0 475.90 984.0
11/14/2018 17:00 0.00 38.8 25.0 475.90 982.5
11/14/2018 16:00 0.00 39.0 27.0 475.91 995.3
11/14/2018 15:00 0.00 39.0 29.0 475.93 1000.5
11/14/2018 14:00 0.00 39.0 27.0 475.91 995.3
11/14/2018 13:00 0.00 39.0 28.0 475.92 1008.8
11/14/2018 12:00 0.00 39.0 27.0 475.94 1020.5
11/14/2018 11:00 0.00 39.0 26.0 475.94 1018.3
11/14/2018 10:00 0.00 39.2 25.0 475.95 1026.8
11/14/2018 09:00 0.00 39.2 23.0 475.95 1032.3
11/14/2018 08:00 0.00 39.4 24.0 475.95 1033.0
11/14/2018 07:00 0.00 39.6 24.0 475.95 1036.0
11/14/2018 06:00 0.00 39.7 25.0 475.95 1036.0
11/14/2018 05:00 0.00 39.9 26.0 475.95 1036.8
11/14/2018 04:00 0.00 39.9 27.0 475.95 1030.0
11/14/2018 03:00 0.00 40.1 28.0 475.95 1022.0
11/14/2018 02:00 0.00 40.3 30.0 475.92 1014.3
11/14/2018 01:00 0.00 40.3 32.0 475.94 1024.0
11/14/2018 00:00 0.00 40.5 35.0 475.93 1013.0
11/13/2018 23:00 0.00 40.5 36.0 475.90 990.8
11/13/2018 22:00 0.00 40.5 37.0 475.90 981.0
11/13/2018 21:00 0.00 40.5 37.0 475.88 960.0
11/13/2018 20:00 0.00 40.5 38.0 475.86 939.8
11/13/2018 19:00 0.00 40.5 38.0 475.83 913.0
11/13/2018 18:00 0.00 40.5 39.0 475.80 886.8
11/13/2018 17:00 0.01 40.3 39.0 475.77 854.3
11/13/2018 16:00 0.00 40.3 39.0 475.73 817.0
11/13/2018 15:00 0.04 40.1 40.0 475.68 779.3
11/13/2018 14:00 0.05 39.9 41.0 475.64 739.5
11/13/2018 13:00 0.16 39.9 42.0 475.59 697.8
11/13/2018 12:00 0.13 39.9 42.0 475.54 662.3
11/13/2018 11:00 0.15 39.7 42.0 475.50 632.5
11/13/2018 10:00 0.16 39.7 41.0 475.47 608.8
11/13/2018 09:00 0.11 39.7 39.0 475.44 591.3
11/13/2018 08:00 0.12 39.7 38.0 475.42 579.8
11/13/2018 07:00 0.13 39.7 36.0 475.41 571.0
11/13/2018 06:00 0.14 39.7 35.0 475.40 564.3
11/13/2018 05:00 0.11 39.7 34.0 475.40 564.8
11/13/2018 04:00 0.03 39.9 34.0 475.40 564.0
11/13/2018 03:00 0.00 39.9 34.0 475.40 566.3
11/13/2018 02:00 0.00 39.9 34.0 475.41 569.8
11/13/2018 01:00 0.00 39.9 33.0 475.41 573.5
11/13/2018 00:00 0.00 39.9 33.0 475.42 579.0
11/12/2018 23:00 0.00 39.9 32.0 475.42 582.5
11/12/2018 22:00 0.00 39.7 32.0 475.43 588.8
11/12/2018 21:00 0.00 39.7 31.0 475.44 593.0
11/12/2018 20:00 0.00 39.7 32.0 475.44 599.5
11/12/2018 19:00 0.00 39.7 33.0 475.45 604.3
11/12/2018 18:00 0.00 39.6 37.0 475.46 608.8
11/12/2018 17:00 0.00 39.6 44.0 475.46 614.3
11/12/2018 16:00 0.00 39.6 46.0 475.47 621.0
11/12/2018 15:00 0.00 39.4 46.0 475.47 624.8
11/12/2018 14:00 0.00 39.2 45.0 475.49 631.0
11/12/2018 13:00 0.00 39.0 42.0 475.49 635.8
11/12/2018 12:00 0.00 39.0 39.0 475.50 643.3
11/12/2018 11:00 0.00 39.0 34.0 475.51 648.5
11/12/2018 10:00 0.00 39.0 31.0 475.52 654.5
11/12/2018 09:00 0.00 39.0 23.0 475.52 661.0
11/12/2018 08:00 0.00 39.2 21.0 475.53 669.0
11/12/2018 07:00 0.00 39.4 21.0 475.54 675.0
11/12/2018 06:00 0.00 39.6 22.0 475.55 681.3
11/12/2018 05:00 0.00 39.7 22.0 475.55 687.5
11/12/2018 04:00 0.00 39.9 23.0 475.56 693.5
11/12/2018 03:00 0.00 39.9 24.0 475.57 700.5
11/12/2018 02:00 0.00 40.1 24.0 475.58 707.0
11/12/2018 01:00 0.00 40.3 25.0 475.59 714.3
11/12/2018 00:00 0.00 40.5 26.0 475.60 723.3
11/11/2018 23:00 0.00 40.5 26.0 475.61 732.0
11/11/2018 22:00 0.00 40.6 26.0 475.62 738.3
11/11/2018 21:00 0.00 40.8 27.0 475.62 745.0
11/11/2018 20:00 0.00 40.8 28.0 475.63 752.0
11/11/2018 19:00 0.00 40.8 30.0 475.64 758.0
11/11/2018 18:00 0.00 41.0 34.0 475.65 763.8
11/11/2018 17:00 0.00 41.0 37.0 475.66 774.3
11/11/2018 16:00 0.00 41.0 38.0 475.66 779.0
11/11/2018 15:00 0.00 41.0 38.0 475.68 784.8
11/11/2018 14:00 0.00 40.8 37.0 475.68 788.3
11/11/2018 13:00 0.00 40.8 35.0 475.67 790.3
11/11/2018 12:00 0.00 40.6 34.0 475.69 802.0
11/11/2018 11:00 0.00 40.8 32.0 475.72 812.8
11/11/2018 10:00 0.00 40.8 31.0 475.71 819.3
11/11/2018 09:00 0.00 41.0 30.0 475.72 827.5
11/11/2018 08:00 0.00 41.0 30.0 475.73 831.8
11/11/2018 07:00 0.00 41.4 30.0 475.74 840.5
11/11/2018 06:00 0.00 41.5 30.0 475.75 844.8
11/11/2018 05:00 0.00 41.7 31.0 475.75 855.5
11/11/2018 04:00 0.00 42.1 32.0 475.75 854.0
11/11/2018 03:00 0.00 42.3 33.0 475.76 860.0
11/11/2018 02:00 0.00 42.4 34.0 475.77 867.8
11/11/2018 01:00 0.00 42.6 33.0 475.76 865.8
11/11/2018 00:00 0.00 43.0 33.0 475.77 871.0
11/10/2018 23:00 0.00 43.2 34.0 475.77 873.3
11/10/2018 22:00 0.00 43.2 34.0 475.78 877.8
11/10/2018 21:00 0.00 43.3 34.0 475.78 877.0
11/10/2018 20:00 0.00 43.5 34.0 475.78 877.8
11/10/2018 19:00 0.00 43.7 35.0 475.78 872.8
11/10/2018 18:00 0.00 43.7 36.0 475.76 873.0
11/10/2018 17:00 0.00 43.9 38.0 475.77 868.5
11/10/2018 16:00 0.00 43.9 40.0 475.79 864.3
11/10/2018 15:00 0.00 43.9 39.0 475.78 870.5
11/10/2018 14:00 0.00 43.7 43.0 475.77 857.0
11/10/2018 13:00 0.00 43.7 42.0 475.74 839.8
11/10/2018 12:00 0.00 43.5 41.0 475.74 830.3
11/10/2018 11:00 0.03 43.5 40.0 475.72 814.8
11/10/2018 10:00 0.04 43.5 38.0 475.70 796.5
11/10/2018 09:00 0.03 43.5 37.0 475.68 779.0
11/10/2018 08:00 0.01 43.5 37.0 475.65 759.5
11/10/2018 07:00 0.01 43.5 37.0 475.63 741.0
11/10/2018 06:00 0.02 43.5 38.0 475.60 719.0
11/10/2018 05:00 0.04 43.5 39.0 475.58 696.3
11/10/2018 04:00 0.04 43.5 42.0 475.55 673.3
11/10/2018 03:00 0.03 43.5 42.0 475.52 653.3
11/10/2018 02:00 0.11 43.5 41.0 475.51 637.0
11/10/2018 01:00 0.14 43.5 40.0 475.48 615.0
11/10/2018 00:00 0.19 43.5 40.0 475.46 601.3
11/09/2018 23:00 0.16 43.5 39.0 475.44 592.3
11/09/2018 22:00 0.23 43.5 40.0 475.43 586.0
11/09/2018 21:00 0.11 43.5 39.0 475.42 579.0
11/09/2018 20:00 0.00 43.5 41.0 475.42 581.0
11/09/2018 19:00 0.00 43.5 42.0 475.43 587.5
11/09/2018 18:00 0.00 43.5 42.0 475.43 590.5
11/09/2018 17:00 0.00 43.5 42.0 475.44 596.8
11/09/2018 16:00 0.00 43.5 43.0 475.45 603.0
11/09/2018 15:00 0.00 43.5 43.0 475.45 606.0
11/09/2018 14:00 0.00 43.5 44.0 475.47 614.3
11/09/2018 13:00 0.00 43.3 44.0 475.47 617.5
11/09/2018 12:00 0.00 43.3 44.0 475.48 623.5
11/09/2018 11:00 0.00 43.3 39.0 475.48 627.8
11/09/2018 10:00 0.00 43.3 35.0 475.49 635.0
11/09/2018 09:00 0.00 43.5 29.0 475.50 641.0
11/09/2018 08:00 0.00 43.7 26.0 475.51 648.8
11/09/2018 07:00 0.00 43.9 27.0 475.52 655.3
11/09/2018 06:00 0.00 44.1 27.0 475.52 661.0
11/09/2018 05:00 0.00 44.2 28.0 475.53 665.8
11/09/2018 04:00 0.00 44.4 29.0 475.54 673.5
11/09/2018 03:00 0.00 44.6 29.0 475.54 678.3
11/09/2018 02:00 0.00 44.8 29.0 475.55 685.8
11/09/2018 01:00 0.00 45.0 30.0 475.56 694.5
11/09/2018 00:00 0.00 45.1 30.0 475.57 699.5
11/08/2018 23:00 0.00 45.1 31.0 475.57 705.5
11/08/2018 22:00 0.00 45.3 33.0 475.58 709.8
11/08/2018 21:00 0.00 45.3 35.0 475.59 715.0
11/08/2018 20:00 0.00 45.5 39.0 475.59 720.8
11/08/2018 19:00 0.00 45.5 43.0 475.61 724.8
11/08/2018 18:00 0.00 45.5 45.0 475.60 728.5
11/08/2018 17:00 0.00 45.3 47.0 475.61 746.5
11/08/2018 16:00 0.00 45.3 48.0 475.66 765.8
11/08/2018 15:00 0.00 45.0 50.0 475.75 759.3
11/08/2018 14:00 0.00 44.8 49.0 475.77 766.8
11/08/2018 13:00 0.00 44.8 48.0 475.78 773.3
11/08/2018 12:00 0.00 44.6 48.0 475.78 780.0
11/08/2018 11:00 0.00 44.6 47.0 475.80 788.0
11/08/2018 10:00 0.00 44.6 44.0 475.80 794.0
11/08/2018 09:00 0.00 44.8 34.0 475.81 803.0
11/08/2018 08:00 0.00 45.0 32.0 475.82 810.3
11/08/2018 07:00 0.00 45.1 33.0 475.83 816.3
11/08/2018 06:00 0.00 45.3 34.0 475.84 822.3
11/08/2018 05:00 0.00 45.5 35.0 475.84 829.0
11/08/2018 04:00 0.00 45.7 41.0 475.85 833.5
11/08/2018 03:00 0.00 45.7 41.0 475.86 839.5
11/08/2018 02:00 0.00 45.9 38.0 475.86 847.8
11/08/2018 01:00 0.00 46.0 35.0 475.87 853.0
11/08/2018 00:00 0.00 46.2 35.0 475.88 859.5
11/07/2018 23:00 0.00 46.2 36.0 475.89 865.5
11/07/2018 22:00 0.00 46.2 38.0 475.89 871.5
11/07/2018 21:00 0.00 46.4 39.0 475.90 878.3
11/07/2018 20:00 0.00 46.4 41.0 475.91 882.8
11/07/2018 19:00 0.00 46.4 46.0 475.91 886.5
11/07/2018 18:00 0.00 46.2 53.0 475.91 890.3
11/07/2018 17:00 0.00 46.2 56.0 475.91 885.8
11/07/2018 16:00 0.00 46.0 57.0 475.92 891.8
11/07/2018 15:00 0.00 45.9 58.0 475.92 896.3
11/07/2018 14:00 0.00 45.5 57.0 475.91 891.8
11/07/2018 13:00 0.00 45.3 57.0 475.93 900.0
11/07/2018 12:00 0.00 45.3 55.0 475.93 898.5
11/07/2018 11:00 0.00 45.1 53.0 475.93 900.8
11/07/2018 10:00 0.00 45.1 50.0 475.93 900.8
11/07/2018 09:00 0.00 45.1 41.0 475.93 900.0
11/07/2018 08:00 0.00 45.1 41.0 475.93 899.3
11/07/2018 07:00 0.00 45.1 44.0 475.92 894.8
11/07/2018 06:00 0.00 45.3 44.0 475.92 891.8
11/07/2018 05:00 0.00 45.3 45.0 475.91 888.0
11/07/2018 04:00 0.00 45.3 45.0 475.91 882.0
11/07/2018 03:00 0.00 45.3 43.0 475.90 873.8
11/07/2018 02:00 0.01 45.3 46.0 475.89 865.5
11/07/2018 01:00 0.00 45.1 47.0 475.88 858.8
11/07/2018 00:00 0.00 45.1 48.0 475.87 849.8
11/06/2018 23:00 0.00 45.1 48.0 475.86 839.5
11/06/2018 22:00 0.00 45.0 48.0 475.85 827.5
11/06/2018 21:00 0.05 45.0 47.0 475.84 815.5
11/06/2018 20:00 0.08 44.8 47.0 475.82 802.3
11/06/2018 19:00 0.03 44.6 47.0 475.81 788.3
11/06/2018 18:00 0.00 44.6 47.0 475.79 769.0
11/06/2018 17:00 0.07 44.4 48.0 475.76 753.3
11/06/2018 16:00 0.26 44.4 48.0 475.75 734.8
11/06/2018 15:00 0.16 44.2 47.0 475.73 724.5
11/06/2018 14:00 0.02 44.2 48.0 475.72 719.3
11/06/2018 13:00 0.00 44.1 48.0 475.72 720.0
11/06/2018 12:00 0.00 43.9 47.0 475.73 723.0
11/06/2018 11:00 0.01 43.9 46.0 475.73 723.8
11/06/2018 10:00 0.00 43.7 44.0 475.73 723.8
11/06/2018 09:00 0.01 43.7 42.0 475.73 726.0
11/06/2018 08:00 0.00 43.7 42.0 475.73 727.5
11/06/2018 07:00 0.01 43.5 41.0 475.73 729.0
11/06/2018 06:00 0.01 43.5 41.0 475.73 729.0
11/06/2018 05:00 0.00 43.5 40.0 475.74 730.5
11/06/2018 04:00 0.02 43.5 40.0 475.74 730.5
11/06/2018 03:00 0.03 43.5 39.0 475.74 730.5
11/06/2018 02:00 0.06 43.5 39.0 475.73 729.5
11/06/2018 01:00 0.03 43.5 39.0 475.73 729.5
11/06/2018 00:00 0.12 43.5 38.0 475.74 730.0
11/05/2018 23:00 0.08 43.5 38.0 475.74 731.0
11/05/2018 22:00 0.04 43.5 39.0 475.74 730.5
11/05/2018 21:00 0.00 43.5 39.0 475.74 734.0
11/05/2018 20:00 0.00 43.5 39.0 475.74 739.3
11/05/2018 19:00 0.00 43.5 40.0 475.75 744.0
11/05/2018 18:00 0.00 43.5 40.0 475.75 752.5
11/05/2018 17:00 0.00 43.5 39.0 475.77 763.3
11/05/2018 16:00 0.00 43.5 39.0 475.78 771.8
11/05/2018 15:00 -- -- -- -- --
11/05/2018 14:00 -- -- -- -- --
11/05/2018 13:00 -- -- -- -- --
11/05/2018 12:00 -- -- -- -- --
11/05/2018 11:00 -- -- -- -- --